Home > Weather > Florianópolis > Past weeks

Flag for Brazil Weather for the Past 2 Weeks in Florianópolis, Santa Catarina, Brazil

Now
77 °F

Passing clouds.


Feels Like: 79 °F
Forecast: 71 / 80 °F
Wind: 3 mph from Northeast

Location: Florianopolis Aeroporto

Current Time: Feb 11, 2016 at 11:25:32 PM

Latest Report: Feb 11, 2016 at 11:00 PM


Visibility: N/A

Pressure: 29.98 "Hg

Humidity: 74%

Dew point: 68 °F

Location of FlorianópolisLocation

Historic Weather in Florianópolis — Graph

°F

Florianópolis Temperature Yesterday

Maximum temperature yesterday: 82 °F (at 11:00 AM)
Minimum temperature yesterday: 75 °F (at 12:00 AM)
Average temperature yesterday: 78 °F

High & Low Weather Summary for the Past Weeks

 TemperatureHumidityPressure
High90 °F (Jan 30, 2:00 PM)100% (Jan 28, 12:00 AM)30.09 "Hg (Jan 28, 12:00 AM)
Low68 °F (Jan 28, 5:00 AM)62% (Jan 31, 3:00 PM)29.80 "Hg (Jan 30, 3:00 PM)
Average76 °F88%29.96 "Hg
* Reported Jan 27 10:00 PM — Feb 11 10:00 PM, Florianópolis, Weather by CustomWeather, © 2016

Note: Actual official high and low records may vary slightly from our data, if they occured in-between our weather recording intervals... More about our weather records

Advertising

Florianópolis Weather History for the Previous 24 Hours

 ConditionsComfort  
Time TempWeatherWind HumidityBarometerVisibility
10:00 PM
Thu, Feb 11
79 °FPassing clouds.3 mph70%29.98 "HgN/A
9:00 PM77 °FPassing clouds.3 mph74%29.98 "HgN/A
8:00 PM79 °FScattered clouds.5 mph74%29.95 "HgN/A
7:00 PM79 °FPassing clouds.10 mph74%29.95 "HgN/A
6:00 PM81 °FPassing clouds.13 mph70%29.92 "HgN/A
5:00 PM81 °FPassing clouds.12 mph70%29.95 "HgN/A
4:00 PM82 °FPassing clouds.9 mph66%29.95 "HgN/A
3:00 PM81 °FPassing clouds.12 mph70%29.98 "HgN/A
2:00 PM81 °FScattered clouds.6 mph70%29.98 "HgN/A
1:00 PM81 °FScattered clouds.3 mph66%29.98 "HgN/A
12:00 PM81 °FScattered clouds.5 mph70%30.01 "HgN/A
11:00 AM79 °FPassing clouds.5 mph74%29.95 "HgN/A
10:00 AM77 °FPassing clouds.5 mph74%30.01 "HgN/A
9:00 AM73 °FPassing clouds.5 mph83%30.01 "HgN/A
8:00 AM72 °FPassing clouds.6 mph94%29.98 "HgN/A
7:00 AM70 °FScattered clouds.2 mph94%29.98 "HgN/A
6:00 AM72 °FPassing clouds.No wind94%29.95 "HgN/A
5:00 AM72 °FPassing clouds.1 mph94%29.95 "HgN/A
4:00 AM72 °FPassing clouds.5 mph100%29.98 "HgN/A
3:00 AM73 °FPassing clouds.No wind94%29.98 "HgN/A
2:00 AM73 °FPassing clouds.2 mph94%30.01 "HgN/A
1:00 AM73 °FPassing clouds.5 mph94%30.01 "HgN/A
12:00 AM75 °FPassing clouds.5 mph89%30.01 "HgN/A
11:00 PM
Wed, Feb 10
75 °FPassing clouds.3 mph94%30.01 "HgN/A
Weather by CustomWeather, © 2016

See weather overviewHow to use our weather pages